sat.trackr.live / text

‹ back to catalog

IRIDIUM 144

NORAD 43249 · 2018-030A

PAYLOAD ACTIVE UNKNOWN

§ Identity

Operator
Country
US
Launch date
2018-03-30
Launch site
AFWTR
Launch vehicle
Mass (kg)
RCS (m²)

Purposes: comms

External: N2YO · Heavens-Above · Gunter

§ Orbital elements

Epoch: 2026-05-25T03:17:35.337120Z

Period
100.40 min
Inclination
86.3938°
Eccentricity
0.0002057
Mean motion
14.34218157 rev/d
Perigee alt
776.2 km
Apogee alt
779.1 km
Semi-major
7,155.8 km
B*
6.8716e-5
RAAN
300.0416°
Arg perigee
90.6180°
Mean anomaly
269.5252°
Rev number
42,683

§ Raw data

IRIDIUM 1441 43249U 18030A   26145.13721455  .00000212  00000+0  68716-4 0  99962 43249  86.3938 300.0416 0002057  90.6180 269.5252 14.34218157426833

JSON: /api/v1/satellites/43249 · /tle

For live sub-satellite position, see the globe view (requires WebGL).

§ Visibility from observer

Set your observer location to see the next 7 days of passes ≥ 10°. The values pass through the URL so the page stays shareable.

No JS? Fill the form by hand. The geolocation button needs JavaScript.